Franklin, NC

10:22 AM EDT on March 26, 2017 (GMT -0400)
Franklin

Weather History for K1A5 - December, 2013

Change the Weather History Date:

Wednesday, December 25, 2013

  Actual Average (KTOC) Record (KTOC)
Temperature  
Mean Temperature 29 °F -  
Max Temperature 43 °F 49 °F 75 °F (2016)
Min Temperature 15 °F 32 °F 25 °F (2013)
Degree Days  
Heating Degree Days 36    
Moisture  
Dew Point 16 °F    
Average Humidity 71    
Maximum Humidity 91    
Minimum Humidity 29    
Precipitation  
Precipitation 0.00 in - - ()
Sea Level Pressure  
Sea Level Pressure 30.37 in    
Wind  
Wind Speed 0 mph (East)    
Max Wind Speed 6 mph    
Max Gust Speed -    
Visibility 10 miles    
Events      
Averages and records for this station are not official NWS values.
T = Trace of Precipitation, MM = Missing Value Source: NWS Daily Summary

Daily Weather History Graph

Daily Weather History Graph

Search for Another Location

Airport or City:

Trip Planner

Search our weather history database for the weather conditions in past years. The results will help you decide how hot, cold, wet, or windy it might be!

Date:

Astronomy

Dec. 25, 2013 Rise Set
Actual Time 7:40 AM EST 5:27 PM EST
Civil Twilight 7:12 AM EST 5:55 PM EST
Nautical Twilight 6:40 AM EST 6:27 PM EST
Astronomical Twilight 6:09 AM EST 6:58 PM EST
Moon 12:19 AM EST (12/25) 12:19 PM EST (12/25)
Length of Visible Light 10h 43m
Length of Day
9h 47m
Waning Gibbous, 49% of the Moon is Illuminated
Dec 25
Waning Gibbous
Jan 1
New
Jan 7
First Quarter
Jan 15
Full
Jan 24
Last Quarter

Hourly Weather History & Observations

Time (EST) Temp. Windchill Dew Point Humidity Pressure Visibility Wind Dir Wind Speed Gust Speed Precip Events Conditions
12:15 AM 19.2 °F - 16.3 °F 89% 30.39 in 10.0 mi Calm Calm - N/A   Clear
12:35 AM 18.5 °F - 15.4 °F 88% 30.39 in 10.0 mi Calm Calm - N/A   Clear
12:55 AM 18.3 °F - 15.4 °F 89% 30.38 in 10.0 mi Calm Calm - N/A   Clear
1:15 AM 18.5 °F - 16.0 °F 90% 30.38 in 10.0 mi Calm Calm - N/A   Clear
1:35 AM 18.3 °F - 15.6 °F 89% 30.37 in 10.0 mi Calm Calm - N/A   Clear
1:55 AM 18.0 °F - 14.9 °F 88% 30.38 in 7.0 mi Calm Calm - N/A   Clear
2:15 AM 18.0 °F - 14.9 °F 88% 30.38 in 10.0 mi Calm Calm - N/A   Clear
2:35 AM 17.2 °F - 14.7 °F 90% 30.38 in 10.0 mi Calm Calm - N/A   Clear
2:55 AM 16.9 °F - 14.2 °F 89% 30.38 in 10.0 mi Calm Calm - N/A   Clear
3:15 AM 17.1 °F - 14.5 °F 90% 30.38 in 10.0 mi Calm Calm - N/A   Clear
3:35 AM 16.9 °F - 14.5 °F 91% 30.38 in 10.0 mi Calm Calm - N/A   Clear
3:55 AM 16.7 °F - 14.2 °F 90% 30.39 in 10.0 mi Calm Calm - N/A   Clear
4:15 AM 17.4 °F - 14.9 °F 90% 30.39 in 10.0 mi Calm Calm - N/A   Clear
4:35 AM 16.5 °F - 13.8 °F 89% 30.39 in 10.0 mi Calm Calm - N/A   Clear
4:55 AM 16.2 °F - 13.3 °F 88% 30.39 in 10.0 mi Calm Calm - N/A   Clear
5:15 AM 16.3 °F - 13.8 °F 90% 30.39 in 10.0 mi Calm Calm - N/A   Clear
5:35 AM 15.6 °F - 13.1 °F 90% 30.39 in 10.0 mi Calm Calm - N/A   Clear
5:55 AM 15.8 °F - 13.1 °F 89% 30.41 in 10.0 mi Calm Calm - N/A   Clear
6:15 AM 16.0 °F - 13.3 °F 89% 30.42 in 10.0 mi Calm Calm - N/A   Clear
6:35 AM 15.6 °F - 12.6 °F 88% 30.42 in 10.0 mi Calm Calm - N/A   Clear
6:55 AM 15.8 °F - 13.1 °F 89% 30.43 in 10.0 mi Calm Calm - N/A   Clear
7:15 AM 15.6 °F - 13.1 °F 90% 30.44 in 10.0 mi Calm Calm - N/A   Clear
7:35 AM 15.4 °F - 12.9 °F 90% 30.44 in 10.0 mi Calm Calm - N/A   Clear
7:55 AM 15.3 °F - 12.2 °F 88% 30.45 in 10.0 mi Calm Calm - N/A   Clear
8:15 AM 15.8 °F - 13.1 °F 89% 30.45 in 10.0 mi Calm Calm - N/A   Clear
8:35 AM 17.2 °F - 14.5 °F 89% 30.46 in 10.0 mi Calm Calm - N/A   Clear
8:55 AM 18.3 °F - 15.6 °F 89% 30.46 in 10.0 mi Calm Calm - N/A   Clear
9:15 AM 20.3 °F - 17.2 °F 88% 30.46 in 10.0 mi Calm Calm - N/A   Clear
9:35 AM 22.6 °F - 18.3 °F 83% 30.45 in 10.0 mi Calm Calm - N/A   Clear
9:55 AM 24.6 °F - 19.8 °F 82% 30.44 in 10.0 mi Calm Calm - N/A   Clear
10:15 AM 26.4 °F - 20.5 °F 78% 30.45 in 10.0 mi Calm Calm - N/A   Clear
10:35 AM 28.2 °F - 19.9 °F 71% 30.44 in 10.0 mi Calm Calm - N/A   Clear
10:55 AM 30.6 °F - 19.8 °F 64% 30.44 in 10.0 mi Calm Calm - N/A   Clear
11:15 AM 32.2 °F - 16.0 °F 51% 30.43 in 10.0 mi Calm Calm - N/A   Clear
11:35 AM 33.3 °F 30.2 °F 18.5 °F 55% 30.42 in 10.0 mi NE 3.5 mph - N/A   Clear
11:55 AM 35.6 °F 32.8 °F 17.1 °F 47% 30.40 in 10.0 mi ENE 3.5 mph - N/A   Clear
12:15 PM 36.7 °F 34.1 °F 15.6 °F 42% 30.39 in 10.0 mi NNE 3.5 mph - N/A   Clear
12:35 PM 37.8 °F - 13.8 °F 38% 30.37 in 10.0 mi Calm Calm - N/A   Clear
12:55 PM 39.2 °F - 16.5 °F 40% 30.35 in 10.0 mi Calm Calm - N/A   Clear
1:15 PM 39.7 °F - 14.4 °F 36% 30.34 in 10.0 mi Calm Calm - N/A   Clear
1:35 PM 41.4 °F - 15.4 °F 35% 30.34 in 10.0 mi Calm Calm - N/A   Clear
1:55 PM 42.1 °F 40.2 °F 15.3 °F 34% 30.32 in 10.0 mi NE 3.5 mph - N/A   Clear
2:15 PM 43.5 °F 40.9 °F 14.2 °F 31% 30.32 in 10.0 mi East 4.6 mph - N/A   Clear
2:35 PM 43.0 °F - 13.6 °F 30% 30.31 in 10.0 mi Calm Calm - N/A   Clear
2:55 PM 43.0 °F 40.3 °F 12.7 °F 29% 30.31 in 10.0 mi SE 4.6 mph - N/A   Clear
3:15 PM 43.5 °F 41.9 °F 14.2 °F 31% 30.30 in 10.0 mi SE 3.5 mph - N/A   Clear
3:35 PM 43.0 °F - 13.3 °F 30% 30.30 in 10.0 mi Calm Calm - N/A   Clear
3:55 PM 42.8 °F 39.3 °F 14.2 °F 31% 30.30 in 10.0 mi SSE 5.8 mph - N/A   Clear
4:15 PM 42.1 °F 40.2 °F 13.6 °F 32% 30.30 in 10.0 mi SSE 3.5 mph - N/A   Clear
4:35 PM 41.2 °F 39.2 °F 13.8 °F 33% 30.30 in 10.0 mi SSE 3.5 mph - N/A   Clear
4:55 PM 39.6 °F - 15.3 °F 37% 30.31 in 10.0 mi Calm Calm - N/A   Clear
5:15 PM 37.9 °F 35.5 °F 15.3 °F 40% 30.31 in 10.0 mi SE 3.5 mph - N/A   Clear
5:35 PM 36.7 °F - 15.3 °F 42% 30.32 in 10.0 mi Calm Calm - N/A   Clear
5:55 PM 36.1 °F - 14.9 °F 42% 30.32 in 10.0 mi Calm Calm - N/A   Clear
6:15 PM 33.4 °F - 17.8 °F 53% 30.32 in 10.0 mi Calm Calm - N/A   Clear
6:35 PM 31.5 °F 26.8 °F 18.9 °F 60% 30.32 in 10.0 mi ENE 4.6 mph - N/A   Clear
6:55 PM 28.8 °F - 20.7 °F 72% 30.33 in 10.0 mi Calm Calm - N/A   Clear
7:15 PM 27.5 °F - 21.4 °F 78% 30.33 in 10.0 mi Calm Calm - N/A   Clear
7:35 PM 27.0 °F - 21.0 °F 78% 30.33 in 10.0 mi Calm Calm - N/A   Clear
7:55 PM 26.1 °F - 21.7 °F 84% 30.34 in 10.0 mi Calm Calm - N/A   Clear
8:15 PM 25.7 °F - 20.7 °F 81% 30.34 in 10.0 mi Calm Calm - N/A   Clear
8:35 PM 24.3 °F - 19.4 °F 82% 30.34 in 10.0 mi Calm Calm - N/A   Clear
8:55 PM 24.8 °F - 21.2 °F 86% 30.34 in 10.0 mi Calm Calm - N/A   Clear
9:15 PM 23.0 °F - 18.7 °F 84% 30.35 in 10.0 mi Calm Calm - N/A   Clear
9:35 PM 23.2 °F - 19.9 °F 87% 30.35 in 10.0 mi Calm Calm - N/A   Clear
9:55 PM 22.3 °F - 18.7 °F 86% 30.35 in 10.0 mi Calm Calm - N/A   Clear
10:15 PM 21.0 °F - 18.1 °F 89% 30.36 in 10.0 mi Calm Calm - N/A   Clear
10:35 PM 21.6 °F - 18.9 °F 89% 30.36 in 10.0 mi Calm Calm - N/A   Clear
10:55 PM 21.4 °F - 18.9 °F 90% 30.35 in 10.0 mi Calm Calm - N/A   Clear
11:15 PM 21.7 °F - 19.0 °F 89% 30.34 in 10.0 mi Calm Calm - N/A   Clear
11:35 PM 24.4 °F 20.1 °F 20.3 °F 84% 30.34 in 10.0 mi East 3.5 mph - N/A   Clear
11:55 PM 23.0 °F - 18.5 °F 83% 30.34 in 10.0 mi Calm Calm - N/A   Clear